Location: Bucquoy
(50.1391°N, 2.7097°E)
Time: 08:44:41
(UTC+00:00)

ISS - Pass Details

Date: 06 May 2021
Orbit: 417 x 422 km, 51.6° (Epoch: 21 June)

Event Time Altitude Azimuth Distance (km) Brightness Sun altitude
Exits shadow 02:19:43 28° 256° (WSW) 819 -2.7 -15.2°
Maximum altitude 02:21:21 88° 339° (NNW) 428 -3.8 -15.0°
Drops below altitude 10° 02:24:45 10° 75° (ENE) 1,512 -0.1 -14.7°
Sets 02:26:51 0° 76° (ENE) 2,379 1.0 -14.5°
